Location: Gaberke
(46.3847°N, 15.0517°E)
Time: 06:14:08
(UTC+00:00)

Daily predictions for brighter satellites

Satellite Brightness Start Highest point End
(mag) Time Altitude Azimuth Time Altitude Azimuth Time Altitude Azimuth
Cosmos 2279 Rocket 4.3 16:12:28 10° N 16:18:30 47° ENE 16:24:30 10° SSE
Cosmos 1315 Rocket 2.9 16:16:17 10° N 16:20:11 53° ENE 16:24:06 10° SSE
Cosmos 1503 Rocket 4.1 16:15:49 10° SSW 16:21:11 87° ESE 16:26:36 10° NNE
CZ-4 R/B 2.9 16:19:19 10° E 16:21:50 16° ENE 16:24:21 10° NNE
Cosmos 2227 4.2 16:16:41 10° SSW 16:22:18 79° ESE 16:28:01 10° NNE
Cosmos 1536 Rocket 4.1 16:18:31 10° SSW 16:22:52 65° WNW 16:27:17 10° N
COSMO-SKYMED 1 3.6 16:21:50 10° NE 16:25:30 26° E 16:29:09 10° SSE
Cosmos 2227 Rocket 4.2 16:21:19 10° W 16:25:39 22° NW 16:30:02 10° N
TIMED 4.5 16:22:58 10° NNW 16:27:22 81° ENE 16:31:44 10° SSE
ATLAS 2AS CENTAUR R/B 3.6 16:21:05 10° WSW 16:28:52 55° NW 16:36:30 10° NE
Cosmos 1634 Rocket 4.1 16:25:59 10° N 16:32:15 90° W 16:38:33 10° S
Cosmos 1844 Rocket 3.9 16:28:46 10° SSE 16:33:04 23° ESE 16:37:23 10° NE
CZ-2C R/B 3.7 16:29:34 10° SE 16:34:25 37° ENE 16:39:31 10° N
H-2A R/B 3.1 16:32:25 10° S 16:36:22 59° WSW 16:40:30 10° NNW
Okean-O 3.8 16:33:01 10° ESE 16:36:25 22° ENE 16:39:50 10° NNE
H-2A R/B 3.0 16:33:34 10° ESE 16:37:28 23° ENE 16:41:27 10° N
Okean O Rocket 1.7 16:34:44 10° SSE 16:39:11 85° WSW 16:43:39 10° NNW
CZ-4B R/B 2.0 16:36:39 10° NNE 16:39:48 35° E 16:42:52 10° SSE
SMAP 3.7 16:36:38 10° S 16:41:13 63° WSW 16:45:52 10° NNW
SeaSat 1 4.5 16:37:29 10° N 16:41:15 22° NW 16:45:00 10° W
Cosmos 773 Rocket 3.9 16:37:03 10° NNW 16:42:14 79° ENE 16:47:22 10° SSE
Cosmos 1626 3.0 16:38:41 10° SSW 16:42:17 52° WNW 16:45:56 10° N
CZ-4B R/B 3.6 16:37:42 10° S 16:43:13 73° WSW 16:48:52 10° NNW
Aureole 2 Rocket 3.5 16:44:40 10° SSE 16:46:57 20° ESE 16:48:02 17° ENE
Cosmos 1689 Rocket 4.0 16:48:08 13° ESE 16:48:08 13° ESE 16:49:08 10° SE
Cosmos 1818 4.4 16:45:48 10° S 16:50:28 30° ESE 16:54:12 15° ENE
Meteor 2-10 Rocket 3.7 16:46:30 10° N 16:51:57 53° ENE 16:57:07 10° SSE
CZ-2D R/B 3.3 16:52:11 10° SSE 16:55:57 53° ENE 16:59:43 10° N
OPS 8737 4.4 16:53:50 10° NW 16:57:00 69° NE 17:01:07 10° SE
Cosmos 1606 Rocket 3.7 16:52:42 10° NNW 16:57:06 79° W 17:01:30 10° S
USA 234 4.0 16:52:59 14° ENE 16:57:57 36° N 17:03:48 10° WNW
H-2A R/B 2.7 16:53:53 10° N 16:58:17 58° WNW 17:02:33 10° SSW
YAOGAN 1 3.2 16:54:47 10° SE 16:58:37 32° ENE 17:02:30 10° N
Cosmos 1892 Rocket 3.5 16:54:58 10° S 16:59:15 63° E 17:03:32 10° NNE
TELKOM 3 3.9 16:58:04 10° SW 17:00:14 33° SSE 17:01:04 26° ESE
ATLAS 5 CENTAUR R/B 2.4 16:57:52 10° WSW 17:01:46 45° NW 17:06:05 11° NNE
Helios 1A Rocket 3.7 17:00:54 10° SE 17:04:29 29° ENE 17:08:06 10° N
Meteor 2-1 Rocket 4.4 16:59:41 10° N 17:05:02 44° ENE 17:10:17 10° SE
RESURS DK-1 4.3 17:03:33 10° WSW 17:07:04 26° NW 17:10:35 10° N
MOS 1 Rocket 3.2 17:03:34 10° NNE 17:07:48 52° E 17:11:57 10° S
Cosmos 2228 3.9 17:04:54 10° NNW 17:09:03 51° W 17:13:11 10° S
ATLAS 3B R/B 4.4 17:03:01 10° NW 17:09:21 37° WSW 17:15:52 10° S
SKYMED 2 3.5 17:09:21 10° NNE 17:13:43 81° ESE 17:18:04 10° S
CZ-4C R/B 3.8 17:11:18 10° W 17:15:51 27° NNW 17:21:11 10° NNE
Cosmos 1538 Rocket 3.9 17:10:44 10° NNW 17:15:56 88° ENE 17:21:06 10° SSE
Aureole 3 3.3 17:12:38 10° N 17:16:01 38° ENE 17:18:57 10° SE
SJ 16-02 1.7 17:12:31 10° S 17:16:40 42° ESE 17:18:56 23° NE
CZ-3B R/B 2.2 17:15:18 10° NW 17:17:43 43° NNE 17:20:10 24° E
Nadezhda 4 Rocket 4.0 17:11:44 10° S 17:17:52 61° E 17:23:58 10° NNE
Cosmos 1777 Rocket 4.1 17:14:46 10° SSW 17:20:02 78° WNW 17:25:22 10° NNE
Cosmos 2263 Rocket 3.5 17:17:02 10° WSW 17:22:20 39° NW 17:27:38 10° NNE
Cosmos 1455 2.1 17:22:50 10° N 17:26:37 60° ENE 17:30:24 10° SSE
Cosmos 2058 Rocket 3.3 17:24:03 10° NNW 17:28:34 76° W 17:33:03 10° S
Cosmos 1703 4.0 17:28:51 10° SSE 17:31:37 33° ESE 17:31:37 33° ESE
COSMOS 2406 4.3 17:27:59 10° N 17:32:41 25° NE 17:32:43 25° NE
X-37B 1.7 17:30:18 10° SW 17:33:10 30° SSE 17:33:14 30° SSE
Meteor 2-13 Rocket 4.3 17:30:15 10° S 17:36:21 79° E 17:42:30 10° NNE
ARGOS 3.2 17:31:43 10° SE 17:36:54 54° ENE 17:42:08 10° N
Cosmos 44 4.1 17:36:30 10° S 17:40:17 31° ESE 17:40:17 31° ESE
Okean 1-7 Rocket 3.8 17:36:16 10° SSW 17:40:48 73° W 17:45:23 10° N
CREW DRAGON DEMO-1 DEB 3.7 17:39:44 10° WNW 17:41:52 38° NNW 17:41:52 38° NNW
Lacrosse 5 1.7 17:37:35 10° NW 17:42:41 84° NE 17:45:00 33° SE
NOSS 3-1 (C) 4.2 17:35:58 10° NW 17:43:02 51° NE 17:47:11 29° ESE
ERS-2 2.3 17:42:03 21° N 17:44:20 71° WNW 17:47:57 10° SSW
ISS -3.5 17:41:54 10° SW 17:45:00 59° S 17:45:00 59° S
CZ-2C R/B 3.1 17:45:49 38° E 17:46:11 39° E 17:51:23 10° SSE
PSLV R/B 3.9 17:43:31 17° NNE 17:46:45 87° W 17:50:57 10° SSW
CSL-04 Debris 4.0 17:41:39 10° SSE 17:46:58 66° ENE 17:52:20 10° N
EXPRESS MD2 4.4 17:40:54 10° WNW 17:48:22 59° SW 17:50:21 29° SSE
COSMOS 2455 3.2 17:43:42 10° SW 17:49:41 66° NW 17:54:02 19° NNE
Cosmos 1626 Rocket 3.4 17:47:38 10° S 17:51:59 79° E 17:54:01 32° NNE
Cosmos 1844 3.6 17:48:45 10° SSW 17:54:23 78° ESE 17:57:10 32° NNE
Cosmos 2026 Rocket 4.0 17:49:03 10° SSE 17:54:57 55° E 18:00:58 10° NNE
Cosmos 1833 Rocket 3.8 17:51:00 10° N 17:54:41 27° NNE 17:54:41 27° NNE
Cosmos 990 Rocket 4.0 17:51:02 10° S 17:56:04 52° ESE 17:56:17 51° E
CZ-4 R/B 2.1 17:52:27 10° S 17:56:28 53° W 18:00:28 10° NNW
Cosmos 2082 Rocket 3.9 17:53:31 10° N 17:55:55 18° NNE 17:55:55 18° NNE
USA 229 DEB 4.1 17:53:00 10° NW 17:59:58 48° NE 18:01:49 41° ENE
USA 229 4.1 17:53:06 10° NNW 18:00:04 48° NE 18:01:52 41° ENE
COSMO-SKYMED 1 4.2 17:57:47 10° N 18:01:42 33° WNW 18:05:36 10° SW
SL-08 RB Rocket 4.3 18:05:15 41° N 18:05:15 41° N 18:08:16 10° N
DMSP B5D1-3 4.4 18:01:30 21° NNE 18:04:59 89° E 18:10:05 10° SSW
USA 267 3.6 18:04:13 40° ESE 18:05:06 42° SE 18:11:14 10° SSW
CZ-4B R/B 4.4 18:09:36 10° NNW 18:11:43 16° WNW 18:13:48 10° WSW
Okean-O 3.8 18:08:24 10° S 18:12:38 43° W 18:16:53 10° NNW
NOSS 3-1 (A) 4.2 18:08:29 10° NW 18:15:35 52° NE 18:16:57 47° ENE
Cosmos 1844 Rocket 3.1 18:10:54 10° SW 18:16:30 61° WNW 18:19:25 28° N
H-2A R/B 2.8 18:11:44 10° S 18:16:33 51° W 18:21:32 10° NNW
Cosmos 923 Rocket 4.4 18:12:18 10° NNW 18:17:36 63° WSW 18:22:50 10° S
Cosmos 2195 Rocket 4.5 18:14:16 10° S 18:20:35 84° W 18:26:59 10° N
Meteor 2-8 Rocket 4.4 18:17:04 10° N 18:23:11 82° W 18:29:16 10° S
Meteor 2-15 4.3 18:17:43 10° N 18:23:54 73° E 18:24:42 64° SE
Cosmos 1898 Rocket 3.6 18:19:19 10° SSW 18:23:42 61° S 18:23:42 61° S
Cosmos 1680 Rocket 3.6 18:19:47 10° NNW 18:25:01 71° WSW 18:26:36 45° S
Cosmos 2278 Rocket 4.5 18:20:22 10° SSE 18:20:26 10° SSE 18:20:26 10° SSE
Cosmos 1627 Rocket 4.5 18:24:17 10° SSW 18:30:28 80° W 18:36:46 10° N
Cosmos 2098 Rocket 4.2 18:24:40 10° S 18:31:43 84° E 18:39:13 10° N
Cosmos 1602 Rocket 4.3 18:27:53 10° SSW 18:31:34 49° WSW 18:31:34 49° WSW
Cosmos 1818 4.2 18:28:33 10° WSW 18:33:49 50° NW 18:34:52 44° NNW
CSL-04 Rocket 4.4 18:33:08 10° S 18:38:22 51° W 18:43:42 10° NNW
USA 234 3.3 18:40:20 58° NNE 18:40:20 58° NNE 18:46:40 10° NW
Iridium 4 Rocket 4.5 18:41:19 10° NNW 18:46:48 48° W 18:51:51 10° SSW
ATLAS 5 CENTAUR R/B 4.1 18:45:16 10° NW 18:47:37 14° NNW 18:47:37 14° NNW
Cosmos 2344 4.2 18:46:02 10° NW 18:55:25 86° NE 18:59:35 49° SE
SJ 16-02 3.5 18:51:57 10° WSW 18:55:26 22° WNW 18:56:00 22° NW
CZ-4C R/B 4.4 19:02:43 10° NW 19:06:30 17° N 19:06:30 17° N
Lacrosse 5 4.2 19:21:28 10° WNW 19:24:15 19° WSW 19:24:15 19° WSW
CZ-2C R/B 4.2 19:27:19 33° W 19:27:19 33° W 19:31:23 10° SW
